map of LGW home
LGW - Airport
Location
City:  London, Surrey, England, United Kingdom
Name:Gatwick Airport
ICAO:EGKK
IATA:LGW

Details
Type:Airport (Aerodrome, Airfield)
Use:Public/Civil, International (customs port of entry)
Latitude:5108'53"N (51.148056)
Longitude:011'25"W (-0.190277)
Elevation:203 ft (62 m)
Variation:0.29W (WMM2015 magnetic declination)
0.15 annual change
Runways:2
Longest:10879 × 148 ft (3316 × 45 m), paved

Time
Time Zone:UTC+0 (DST+1)
Local Time:

Weather
METAR:EGKK 130720Z 07006KT 6000 FEW028 M01/M02 Q1016
TAF:EGKK 130453Z 1306/1412 10008KT 4000 BR SCT018
BECMG 1307/1310 9999 NSW PROB30 1321/1409 6000

Related Locations
Nearby:
Farthest:CHT: 11895 mi / 19143 km
Waitangi [Tuuta], CIT, NZ

Find:

   beyond  
but within

Other Information
Maps:
NOTAMs:
Links:
Sources:

  
  • flag of United Kingdom
  • flag of England
  • flag of Surrey
  

Airport Diagram

Airport diagram for LGW

Airport diagram PDF

Sectional Chart

Flight Planning
at skyvector.com

Satellite Image

Google Maps Satellite view

 

Copyright © 2004-2018 Karl L. Swartz. All rights reserved.
The Great Circle Mapper name and logo are trademarks of the Great Circle Mapper.
All other trademarks mentioned herein belong to their respective owners.
Please see credits for attibutions and further copyright information.

  Follow gcmap on Facebook Follow gcmap on Twitter Follow gcmap on Google+ GCmap on LinkedIn

hCard Microformat

Geo Microformat